JILIN-01-10 (43946 NORAD) Tracking and Keplerian Element Data

This shows tracking and keplerian element data for the satellite.

Feedback or suggestion? Click here.




ElementValue
Catalog43946
NameJILIN-01-10
Epoch Orbit445
Epoch Day51.1979711
Epoch Year2019
RAAN149.8283
Inclination97.5095
Eccentricity0.0017532
Argument of Perigee176.6925
Mean Anonmoly276.8079
Mean Motion15.12745251
Decay Rate5.81E-06
L11 43946U 19005E 19051.19797110 .00000581 00000-0 36745-4 0 9995
L22 43946 97.5095 149.8283 0017532 176.6925 276.8079 15.12745251 4457

Live tracking and technical data element details for JILIN-01-10 (NORAD 43946). JILIN-01-10 can be tracked NOW for your location showing map with azimuth and elevation plus other details from your city location.

Track the satellite on the map from your city or location and see movement details for azimuth, elevation, latitude, longitude, range, height, and movement on the map or in text.







IsCatalogInMostPopularTable: catalog: 43946, numindb: 15
Update: records affected: 1



GetName: 43946 JILIN-01-10

Hit Count: updated at: Thu, 21 Feb 2019 11:32:56 GMT